Location: Bakhuizen
(52.8696°N, 5.4575°E)
Time: 09:17:06
(UTC+00:00)

Meteor 2-9 Rocket - Pass Details

Date: 11 May 2021
Orbit: 791 x 895 km, 81.3° (Epoch: 15 June)

Event Time Altitude Azimuth Distance (km) Brightness Sun altitude
Rises 22:17:19 0° 346° (NNW) 3,512 9.2 -17.1°
Reaches altitude 10° 22:19:49 10° 347° (NNW) 2,559 8.0 -17.2°
Maximum altitude 22:25:40 85° 77° (ENE) 882 4.2 -17.5°
Enters shadow 22:28:40 30° 164° (SSE) 1,510 4.9 -17.6°
